Flag for Netherlands Weather past 2 weeks in Apeldoorn, Netherlands

Now
36 °F

Fog.


Feels Like: 29 °F
Forecast: 28 / 36 °F
Wind: 9 mph from Southeast

Location: Deelen

Current Time: Dec 26, 2014 at 11:16:01 PM

Latest Report: Dec 26, 2014 at 10:55 PM


Visibility: 3 mi

Pressure: 30.07 "Hg

Humidity: 100%

Dew point: 36 °F

Location of ApeldoornLocation

Historic Weather in Apeldoorn — Graph

°F

Apeldoorn temperature yesterday

Maximum temperature yesterday: 43 °F (at 5:25 AM)
Minimum temperature yesterday: 30 °F (at 8:25 PM)
Average temperature yesterday: 38 °F

Past Weeks' High & Low Weather Summary

 TemperatureHumidityPressure
High54 °F (Dec 18, 1:55 PM)100% (Dec 12, 1:25 AM)30.39 "Hg (Dec 12, 1:25 AM)
Low27 °F (Dec 26, 7:55 AM)71% (Dec 19, 3:25 PM)29.30 "Hg (Dec 12, 11:55 AM)
Average43 °F91%29.93 "Hg
* Reported Dec 11 9:25 PM — Dec 26 9:25 PM, Apeldoorn, Weather by CustomWeather, © 2014

Note: Actual official high and low records may vary slightly from our data, if they occured in-between our weather recording intervals... More about our weather records

Advertising

Apeldoorn weather history for previous 24 hours

 ConditionsComfort  
Time TempWeatherWind HumidityBarometerVisibility
9:25 PM
Dec 26
37 °FFog.9 mph93%30.12 "Hg3 mi
8:55 PM37 °FFog.7 mph93%30.15 "Hg4 mi
8:25 PM37 °FFog.7 mph93%30.18 "Hg4 mi
7:55 PM37 °FFog.8 mph93%30.18 "Hg3 mi
7:25 PM37 °FFog.8 mph93%30.21 "Hg3 mi
6:55 PM37 °FFog.8 mph93%30.24 "Hg2 mi
6:25 PM34 °FFog.6 mph100%30.24 "Hg2 mi
5:55 PM34 °FFog.3 mph93%30.24 "Hg2 mi
5:25 PM36 °FFog.2 mph93%30.27 "Hg3 mi
4:55 PM36 °FFog.2 mph93%30.27 "Hg1 mi
4:25 PM36 °FFog.2 mph93%30.30 "Hg4 mi
3:55 PM37 °FPartly sunny.2 mph87%30.30 "HgN/A
3:25 PM37 °FPartly sunny.3 mph93%30.30 "HgN/A
2:55 PM37 °FChilly.6 mph93%30.30 "HgN/A
2:25 PM39 °FOvercast.5 mph87%30.33 "HgN/A
1:55 PM39 °FOvercast.3 mph87%30.33 "HgN/A
1:25 PM39 °FPartly sunny.2 mph87%30.33 "HgN/A
12:55 PM39 °FPartly sunny.2 mph87%30.36 "HgN/A
12:25 PM39 °FPassing clouds.3 mph87%30.36 "HgN/A
11:55 AM37 °FPassing clouds.2 mph87%30.36 "HgN/A
11:25 AM36 °FFog.No wind93%30.39 "Hg4 mi
10:55 AM34 °FFog.No wind100%30.39 "Hg3 mi
10:25 AM32 °FIce fog.No wind100%30.39 "Hg3 mi
9:55 AM28 °FIce fog.1 mph100%30.39 "Hg3 mi
9:25 AM28 °FIce fog.2 mph93%30.36 "Hg1 mi
8:55 AM27 °FIce fog.2 mph93%30.36 "Hg2 mi
8:25 AM28 °FIce fog.2 mph93%30.36 "Hg2 mi
7:55 AM27 °FIce fog.2 mph100%30.36 "Hg2 mi
7:25 AM28 °FIce fog.2 mph100%30.36 "Hg3 mi
6:55 AM28 °FIce fog.2 mph100%30.36 "Hg2 mi
6:25 AM28 °FIce fog.1 mph100%30.36 "Hg1 mi
5:55 AM28 °FIce fog.1 mph100%30.36 "Hg1 mi
5:25 AM32 °FIce fog.1 mph100%30.36 "Hg1 mi
4:55 AM32 °FIce fog.2 mph100%30.36 "Hg4 mi
4:25 AM32 °FIce fog.3 mph100%30.36 "Hg3 mi
3:25 AM34 °FFog.2 mph93%30.36 "Hg4 mi
2:55 AM34 °FFog.3 mph100%30.36 "Hg4 mi
2:25 AM34 °FFog.5 mph93%30.36 "Hg3 mi
1:55 AM34 °FPartly cloudy.7 mph100%30.36 "HgN/A
1:25 AM32 °FPassing clouds.7 mph100%30.36 "HgN/A
12:55 AM34 °FMostly cloudy.3 mph93%30.36 "HgN/A
12:25 AM32 °FIce fog.3 mph100%30.36 "Hg6 mi
11:55 PM
Dec 25
32 °FIce fog.5 mph93%30.33 "Hg6 mi
11:25 PM30 °FIce fog.2 mph100%30.33 "Hg4 mi
Weather by CustomWeather, © 2014

See weather overviewHow to use our weather pages